User: anonymous   Login
Location: ?
(35.4214°N, 139.3011°E)
Time: 22:35:37
(UTC+00:00)
Language:

ATLAS CENTAUR R/B - Orbit

View from above orbital plane
View from above orbital plane
View from above satellite
View from above satellite

Ground track
Ground track

The orbit data is extracted from the following two-line orbital elements,

1 38770U 12048N   20270.81144142 0.00000360  00000-0  24808-4 0    04
2 38770  64.6554 201.5585 0139441 107.0352 252.9648 14.97942873    03
Epoch (UTC): 26 September 2020 19:28:28
Eccentricity: 0.0139441
inclination: 64.6554°
perigee height: 476 km
apogee height: 670 km
right ascension of ascending node: 201.5585°
argument of perigee: 107.0352°
revolutions per day: 14.97942873
mean anomaly at epoch: 252.9648°
orbit number at epoch: 0

The dashed part of the orbit path shows where the satellite is in the earth's shadow,  

DLR